COSMOS 2535 DEB

Satellite information

Favourite Embed

Satellite Type and Status

DEBRISIN ORBIT

Key statistics

Satellite COSMOS 2535 DEB at a glance.

Uptime

2296

Days in orbit

Revolutions

≈ 14.8

Per day

Orbit

SSO

Sun Synchronous Orbit

Inclination

97.7

Latest

Satellite identification and parameters

Extended collection of information and parameters for COSMOS 2535 DEB.

Object identification

Identified? True

Debris? True

Object name: COSMOS 2535 DEB

International designator: 2019-039K

Object number (NORAD): 44633

Object ID (CCSDS): 44633

Country: COMMONWEALTH OF INDEPENDENT STATES (CIS)

Current information (Y/N): Y

RCS size: SMALL

Orbital parameters

Period: 97.208 minutes

Inclination: 97.7108 deg

SMA: 7003.157 km

Apoapsis: 661.195 km

Periapsis: 588.849 km

RAAN: 286.1559 deg

Eccentricy: 0.00516523

Argument of periapsis: 106.6905 deg

Mean anomaly: 253.9987 deg

Mean motion: 14.81364605 rev/day

Mean motion (dot): 0.00003207 rev/day2

B* drag term: 0.00040760447 1/REarth

Two-line elements (TLE)

Creation date: Oct. 21, 2025, 6:24 p.m.

Reference frame: TEME

Reference center: EARTH

Epoch: Oct. 21, 2025, 5:17 a.m. UTC

TLE line 0: 0 COSMOS 2535 DEB

TLE line 1: 1 44633U 19039K 25294.22047398 .00003207 00000-0 40760-3 0 9991

TLE line 2: 2 44633 97.7108 286.1559 0051652 106.6905 253.9987 14.81364605325298

Live tracking on map

Real-time ground track for satellite COSMOS 2535 DEB.

In-orbit conjunctions

A list of the most updated potential collisions computed for object COSMOS 2535 DEB.

Target Orbit TCA Probability of collision Miss distance Type
CZ-6A DEB LEO 2025-05-18 01:53:34 0.0004745051 78.0 (m) DEBRIS

Associated space launch

Four satellites in the interests of the Ministry of Defense of Russia.

COSMOS 2535 DEB was lifted into orbit during the mission ‘Soyuz 2.1v/Volga | Kosmos 2535, Kosmos 2536, Kosmos 2537, Kosmos 2538’, on board a Soyuz 2.1v space rocket.

The launch took place on July 10, 2019, 5:14 p.m. from 43/4 (43R).

For more information about the launch, click the button.

Launch to space Soyuz 2.1v/Volga | Kosmos 2535, Kosmos 2536, Kosmos 2537, Kosmos 2538
Soyuz 2.1v/Volga | Kosmos 2535, Kosmos 2536, Kosmos 2537, Kosmos 2538

Agency: N/A

Status: Launch Successful

Launch date: July 10, 2019, 5:14 p.m. UTC

Rocket: Soyuz 2.1v

Launch pad: 43/4 (43R)

Location: Plesetsk Cosmodrome, Russian Federation

...

Latest news about this satellite

News about space launch
Four Russian military satellites launched from Plesetsk Cosmodrome


Newsletter sign-up

Weekly statistics, charts and insights to help you stay on top of the space industry.